KI5NYZ Weather Reports


Display with metric or nautical units.
time (UTC)temp
F
wind
direction
speed
MPH
gust
MPH
rain 1hr
in
rain 24hr
in
rain mn
in
humidity
%
barometer
mb
20260506173540 59 106 4.0 7.0 0.00 0.16 0.06 54 1015.8
20260506172519 58 97 3.0 8.0 0.00 0.16 0.06 55 1015.8
20260506171519 57 71 3.0 5.0 0.00 0.16 0.06 57 1015.8
20260506170520 57 104 2.0 7.0 0.01 0.16 0.06 56 1015.8
20260506165520 57 98 3.0 8.0 0.01 0.16 0.06 58 1015.8
20260506164522 56 99 4.0 9.0 0.01 0.16 0.06 59 1015.8
20260506163520 55 114 3.0 6.0 0.03 0.16 0.06 60 1015.7
20260506162520 55 109 3.0 8.0 0.04 0.16 0.06 62 1015.7
20260506161540 54 106 4.0 11.0 0.05 0.16 0.06 63 1015.7
20260506160601 54 93 4.0 9.0 0.04 0.15 0.06 63 1015.7
20260506155520 53 93 4.0 8.0 0.04 0.15 0.05 64 1015.6
20260506154521 53 108 5.0 8.0 0.04 0.15 0.05 65 1015.7
20260506153521 52 100 4.0 8.0 0.02 0.13 0.03 67 1015.7
20260506152521 52 97 4.0 7.0 0.01 0.11 0.02 65 1015.6
20260506151526 52 91 4.0 8.0 0.00 0.11 0.01 66 1015.5
20260506150522 51 88 4.0 7.0 0.01 0.11 0.01 68 1015.5
20260506145521 51 86 4.0 6.0 0.01 0.11 0.01 68 1015.6
20260506144523 50 83 4.0 6.0 0.00 0.11 0.01 69 1015.6
20260506143559 50 87 5.0 8.0 0.00 0.11 0.01 70 1015.5
20260506142519 49 82 4.0 7.0 0.00 0.11 0.01 71 1015.4
20260506141519 49 70 4.0 7.0 0.00 0.11 0.01 72 1015.4
20260506140539 48 64 4.0 7.0 0.00 0.10 0.00 74 1015.3
20260506135541 47 72 4.0 8.0 0.00 0.10 0.00 75 1015.2
20260506134519 47 66 5.0 8.0 0.00 0.10 0.00 76 1014.9
20260506133520 47 55 5.0 9.0 0.00 0.10 0.00 77 1014.8
20260506132540 46 61 5.0 8.0 0.00 0.10 0.00 78 1014.6
20260506131520 46 54 7.0 10.0 0.00 0.10 0.00 78 1014.2
20260506130520 46 61 4.0 9.0 0.00 0.10 0.00 79 1013.9
20260506125540 46 55 6.0 9.0 0.00 0.10 0.00 80 1013.9
20260506124522 45 63 3.0 7.0 0.00 0.10 0.00 80 1013.9
20260506123520 45 73 3.0 6.0 0.00 0.10 0.00 80 1013.7
20260506122521 45 69 3.0 5.0 0.00 0.10 0.00 80 1013.8
20260506121604 45 67 4.0 7.0 0.00 0.10 0.00 80 1013.9
20260506120522 46 69 4.0 9.0 0.00 0.10 0.00 79 1013.9
20260506115521 46 61 4.0 8.0 0.00 0.10 0.00 78 1013.8
20260506114522 46 68 4.0 8.0 0.00 0.10 0.00 77 1013.6
20260506113518 47 64 4.0 6.0 0.00 0.10 0.00 77 1013.5
20260506112522 47 73 5.0 9.0 0.00 0.10 0.00 76 1013.3
20260506111518 48 76 4.0 7.0 0.00 0.10 0.00 75 1013.0
20260506110518 49 83 4.0 8.0 0.00 0.10 0.00 74 1012.7
20260506105519 50 96 4.0 8.0 0.00 0.10 0.00 73 1012.5
20260506104521 50 92 5.0 9.0 0.00 0.10 0.00 73 1012.5
20260506103520 51 96 5.0 8.0 0.00 0.10 0.00 73 1012.4
20260506102519 52 105 5.0 7.0 0.00 0.10 0.00 72 1012.5
20260506101520 52 109 5.0 7.0 0.00 0.10 0.00 71 1012.1
20260506100520 53 107 4.0 7.0 0.00 0.10 0.00 71 1012.1
20260506095521 53 115 4.0 6.0 0.00 0.10 0.00 70 1011.9
20260506094521 53 114 4.0 5.0 0.00 0.10 0.00 69 1011.6
20260506093520 53 117 3.0 6.0 0.00 0.10 0.00 69 1011.5
20260506092520 54 113 3.0 5.0 0.00 0.10 0.00 68 1011.2
20260506091540 54 113 3.0 6.0 0.00 0.10 0.00 68 1011.1
20260506090523 54 109 3.0 6.0 0.00 0.10 0.00 68 1010.9
20260506085521 54 106 4.0 7.0 0.00 0.10 0.00 67 1010.9
20260506084524 54 109 3.0 4.0 0.00 0.10 0.00 67 1010.7
20260506083522 54 113 4.0 5.0 0.00 0.10 0.00 67 1010.6
20260506082523 55 108 4.0 6.0 0.00 0.10 0.00 67 1010.5
20260506081522 55 111 3.0 5.0 0.00 0.10 0.00 67 1010.5
20260506080519 55 100 3.0 6.0 0.00 0.10 0.00 66 1010.5
20260506073521 57 106 4.0 6.0 0.00 0.10 0.00 62 1010.4
20260506072520 58 116 4.0 7.0 0.00 0.10 0.00 61 1010.5
20260506071519 59 108 5.0 9.0 0.00 0.10 0.00 59 1010.6
20260506070522 60 110 5.0 7.0 0.00 0.10 0.00 57 1010.7
20260506061520 63 113 5.0 7.0 0.00 0.10 0.00 51 1010.4
20260506060540 64 116 4.0 6.0 0.00 0.10 0.00 49 1010.1
20260506050557 67 246 2.0 3.0 0.00 0.10 0.00 41 1009.2
20260506044518 67 332 4.0 6.0 0.00 0.10 0.10 42 1008.8
20260506043529 68 334 3.0 6.0 0.00 0.10 0.10 39 1008.9
20260506042519 68 304 2.0 3.0 0.00 0.10 0.10 39 1009.1
20260506041521 69 251 1.0 2.0 0.00 0.10 0.10 39 1009.2
20260506040539 69 281 2.0 3.0 0.00 0.10 0.10 38 1009.1
20260506035520 70 306 4.0 6.0 0.00 0.10 0.10 37 1009.0
20260506034540 70 308 6.0 9.0 0.00 0.10 0.10 37 1008.9
20260506033519 70 309 7.0 10.0 0.00 0.10 0.10 36 1008.8
20260506032520 71 307 8.0 10.0 0.00 0.10 0.10 35 1008.8
20260506031621 71 302 7.0 10.0 0.00 0.10 0.10 34 1009.0
20260506030543 71 293 7.0 11.0 0.00 0.10 0.10 35 1009.0
20260506025521 70 300 4.0 7.0 0.00 0.10 0.10 36 1008.9
20260506024522 70 262 3.0 6.0 0.00 0.10 0.10 36 1008.9
20260506023522 71 253 3.0 6.0 0.00 0.10 0.10 35 1008.8
20260506022522 72 256 5.0 10.0 0.00 0.10 0.10 33 1008.8
20260506021521 73 240 11.0 15.0 0.00 0.10 0.10 32 1008.8
20260506020521 73 235 12.0 16.0 0.00 0.10 0.10 31 1008.6
20260506015525 74 230 12.0 17.0 0.00 0.10 0.10 30 1008.4
20260506014521 74 238 12.0 19.0 0.00 0.10 0.10 30 1008.2
20260506013522 75 256 6.0 11.0 0.00 0.10 0.10 29 1008.1
20260506012521 75 248 10.0 17.0 0.00 0.10 0.10 28 1008.0
20260506011519 75 252 7.0 16.0 0.00 0.10 0.10 28 1007.9
20260506010602 76 253 6.0 12.0 0.00 0.10 0.10 27 1007.7
20260506005540 77 245 7.0 12.0 0.00 0.10 0.10 26 1007.7
20260506004524 77 244 6.0 12.0 0.00 0.10 0.10 26 1007.6
20260506003522 78 251 5.0 9.0 0.00 0.10 0.10 26 1007.7
20260506002520 78 252 7.0 14.0 0.00 0.10 0.10 25 1007.7
20260506001539 78 254 8.0 14.0 0.00 0.10 0.10 25 1007.8
20260506000601 79 262 9.0 14.0 0.01 0.10 0.10 25 1007.7
20260505235540 79 262 9.0 14.0 0.06 0.10 0.10 25 1007.7
20260505234520 79 259 10.0 19.0 0.08 0.10 0.10 25 1007.6
20260505233521 79 268 10.0 16.0 0.08 0.10 0.10 24 1007.6
20260505232520 79 256 9.0 14.0 0.09 0.10 0.10 24 1007.5
20260505231521 79 266 11.0 20.0 0.09 0.09 0.09 24 1007.5
20260505230527 79 275 14.0 21.0 0.08 0.09 0.09 24 1007.4
20260505225601 79 282 14.0 21.0 0.03 0.03 0.03 23 1007.6
20260505224521 79 280 13.0 17.0 0.02 0.02 0.02 23 1007.7
20260505223521 79 284 11.0 18.0 0.01 0.02 0.01 22 1007.7
20260505222522 79 277 12.0 18.0 0.01 0.01 0.01 22 1007.8
20260505221542 79 277 11.0 18.0 0.00 0.01 0.01 23 1007.8
20260505220519 79 274 11.0 19.0 0.00 0.01 0.00 23 1007.9
20260505215518 79 280 11.0 14.0 0.00 0.01 0.00 24 1008.1
20260505214539 79 267 9.0 13.0 0.00 0.02 0.00 25 1008.1
20260505213519 79 270 11.0 17.0 0.00 0.03 0.00 24 1008.3
20260505212521 79 271 9.0 13.0 0.00 0.03 0.00 24 1008.2
20260505211541 80 274 12.0 16.0 0.00 0.04 0.00 24 1008.1
20260505210520 81 269 11.0 18.0 0.00 0.05 0.00 23 1008.0
20260505205521 80 264 9.0 13.0 0.00 0.06 0.00 22 1008.3
20260505204520 80 275 8.0 13.0 0.00 0.06 0.00 22 1008.3
20260505203521 81 259 8.0 14.0 0.00 0.06 0.00 22 1008.5
20260505202525 81 262 8.0 13.0 0.00 0.06 0.00 23 1008.7
20260505201521 81 256 9.0 17.0 0.00 0.06 0.00 23 1008.7
20260505200540 80 253 8.0 12.0 0.00 0.06 0.00 23 1008.7
20260505195522 80 249 6.0 11.0 0.00 0.06 0.00 24 1008.6
20260505194521 80 253 6.0 11.0 0.00 0.06 0.00 24 1008.8
20260505193528 80 274 8.0 12.0 0.00 0.06 0.00 24 1008.8
20260505192541 80 269 6.0 12.0 0.00 0.06 0.00 24 1008.7
20260505191521 80 282 7.0 12.0 0.00 0.06 0.00 24 1008.8
20260505190522 81 270 7.0 12.0 0.00 0.06 0.00 23 1008.9
20260505185518 81 285 6.0 9.0 0.00 0.06 0.00 23 1008.9
20260505184519 81 284 7.0 11.0 0.00 0.06 0.00 23 1009.1
20260505183519 81 276 8.0 11.0 0.00 0.06 0.00 23 1009.1
20260505182520 81 292 6.0 9.0 0.00 0.06 0.00 23 1009.1
20260505181520 81 280 6.0 10.0 0.00 0.06 0.00 23 1009.2
20260505180546 80 299 7.0 12.0 0.00 0.06 0.00 23 1009.3
20260505175519 81 297 7.0 11.0 0.00 0.06 0.00 22 1009.3
20260505174520 80 309 8.0 12.0 0.00 0.06 0.00 22 1009.2